contact: severine.martini@mio.osupytheas.fr, dominique.lefevre@mio.osupytheas.fr
Project:EMSO Ligure-ouest http://www.emso-fr.org/EMSO-France
Sensor Microcat Sea-Bird SBE37 SMP,  Serial 57510 
DOI : "https://doi.org/10.17882/97948" 
Title:EMSO Ligure Ouest : Data Bathybot capteur Microcat - deploiement 2023-04-28
Datetime,Profondeur,Latitude,Longitude,Temperature,Conductivite,Pression,Salinite
time,m,degree_north,degree_east,degree_C,S/m,db,PSU 
2023-10-09T00:00:50,2420,42.8014,5.9826,13.2982,4.59942,2453.559,38.4898
2023-10-09T00:03:49,2420,42.8014,5.9826,13.2989,4.59943,2453.559,38.4892
2023-10-09T00:06:49,2420,42.8014,5.9826,13.2985,4.59938,2453.574,38.4892
2023-10-09T00:09:49,2420,42.8014,5.9826,13.2990,4.59940,2453.537,38.4889
2023-10-09T00:12:49,2420,42.8014,5.9826,13.2995,4.59942,2453.559,38.4886
2023-10-09T00:15:49,2420,42.8014,5.9826,13.2988,4.59942,2453.559,38.4892
2023-10-09T00:18:49,2420,42.8014,5.9826,13.3000,4.59945,2453.559,38.4883
2023-10-09T00:21:49,2420,42.8014,5.9826,13.2991,4.59951,2453.582,38.4897
2023-10-09T00:24:49,2420,42.8014,5.9826,13.2985,4.59945,2453.567,38.4898
2023-10-09T00:27:49,2420,42.8014,5.9826,13.2991,4.59950,2453.559,38.4896
2023-10-09T00:30:49,2420,42.8014,5.9826,13.2986,4.59945,2453.559,38.4897
2023-10-09T00:33:49,2420,42.8014,5.9826,13.2998,4.59942,2453.559,38.4882
2023-10-09T00:36:49,2420,42.8014,5.9826,13.2985,4.59941,2453.559,38.4894
2023-10-09T00:39:49,2420,42.8014,5.9826,13.3013,4.59951,2453.582,38.4876
2023-10-09T00:42:49,2420,42.8014,5.9826,13.2990,4.59948,2453.582,38.4896
2023-10-09T00:45:49,2420,42.8014,5.9826,13.2986,4.59940,2453.582,38.4893
2023-10-09T00:48:49,2420,42.8014,5.9826,13.2996,4.59948,2453.582,38.4890
2023-10-09T00:51:49,2420,42.8014,5.9826,13.2986,4.59946,2453.559,38.4898
2023-10-09T00:54:49,2420,42.8014,5.9826,13.2987,4.59937,2453.559,38.4888
2023-10-09T00:57:49,2420,42.8014,5.9826,13.2987,4.59943,2453.559,38.4894
2023-10-09T01:00:49,2420,42.8014,5.9826,13.2979,4.59929,2453.559,38.4889
2023-10-09T01:03:49,2420,42.8014,5.9826,13.2991,4.59943,2453.559,38.4890
2023-10-09T01:06:49,2420,42.8014,5.9826,13.2988,4.59937,2453.559,38.4887
2023-10-09T01:09:49,2420,42.8014,5.9826,13.2979,4.59931,2453.582,38.4890
2023-10-09T01:12:49,2420,42.8014,5.9826,13.2982,4.59937,2453.559,38.4894
2023-10-09T01:15:49,2420,42.8014,5.9826,13.2991,4.59936,2453.537,38.4884
2023-10-09T01:18:49,2420,42.8014,5.9826,13.2990,4.59928,2453.559,38.4877
2023-10-09T01:21:49,2420,42.8014,5.9826,13.2986,4.59937,2453.582,38.4889
2023-10-09T01:24:49,2420,42.8014,5.9826,13.2992,4.59962,2453.582,38.4907
2023-10-09T01:27:49,2420,42.8014,5.9826,13.2990,4.59958,2453.582,38.4905
2023-10-09T01:30:50,2420,42.8014,5.9826,13.2994,4.59959,2453.567,38.4903
2023-10-09T01:33:49,2420,42.8014,5.9826,13.2981,4.59941,2453.574,38.4898
2023-10-09T01:36:49,2420,42.8014,5.9826,13.2986,4.59942,2453.604,38.4893
2023-10-09T01:39:49,2420,42.8014,5.9826,13.2985,4.59932,2453.559,38.4886
2023-10-09T01:42:49,2420,42.8014,5.9826,13.2986,4.59942,2453.596,38.4894
2023-10-09T01:45:49,2420,42.8014,5.9826,13.3004,4.59953,2453.596,38.4887
2023-10-09T01:48:49,2420,42.8014,5.9826,13.3003,4.59963,2453.582,38.4897
2023-10-09T01:51:49,2420,42.8014,5.9826,13.2988,4.59945,2453.559,38.4895
2023-10-09T01:54:49,2420,42.8014,5.9826,13.3001,4.59959,2453.582,38.4895
2023-10-09T01:57:49,2420,42.8014,5.9826,13.2998,4.59958,2453.559,38.4897
2023-10-09T02:00:49,2420,42.8014,5.9826,13.2992,4.59952,2453.582,38.4898
2023-10-09T02:03:49,2420,42.8014,5.9826,13.2992,4.59955,2453.567,38.4900
2023-10-09T02:06:49,2420,42.8014,5.9826,13.2987,4.59944,2453.582,38.4895
2023-10-09T02:09:49,2420,42.8014,5.9826,13.2983,4.59937,2453.567,38.4893
2023-10-09T02:12:49,2420,42.8014,5.9826,13.2988,4.59945,2453.582,38.4895
2023-10-09T02:15:49,2420,42.8014,5.9826,13.2996,4.59959,2453.590,38.4900
2023-10-09T02:18:49,2420,42.8014,5.9826,13.2993,4.59950,2453.582,38.4895
2023-10-09T02:21:49,2420,42.8014,5.9826,13.3011,4.59974,2453.604,38.4899
2023-10-09T02:24:49,2420,42.8014,5.9826,13.2999,4.59977,2453.627,38.4914
2023-10-09T02:27:49,2420,42.8014,5.9826,13.3021,4.59966,2453.582,38.4882
2023-10-09T02:30:49,2420,42.8014,5.9826,13.2998,4.59988,2453.582,38.4926
2023-10-09T02:33:49,2420,42.8014,5.9826,13.2999,4.59981,2453.582,38.4918
2023-10-09T02:36:49,2420,42.8014,5.9826,13.3007,4.59990,2453.567,38.4919
2023-10-09T02:39:49,2420,42.8014,5.9826,13.3020,4.59986,2453.619,38.4902
2023-10-09T02:42:49,2420,42.8014,5.9826,13.2995,4.59985,2453.604,38.4925
2023-10-09T02:45:49,2420,42.8014,5.9826,13.3007,4.59971,2453.567,38.4901
2023-10-09T02:48:49,2420,42.8014,5.9826,13.2993,4.59985,2453.590,38.4927
2023-10-09T02:51:49,2420,42.8014,5.9826,13.3008,4.59982,2453.582,38.4911
2023-10-09T02:54:49,2420,42.8014,5.9826,13.2987,4.59962,2453.582,38.4912
2023-10-09T02:57:49,2420,42.8014,5.9826,13.3008,4.59969,2453.582,38.4898
2023-10-09T03:00:49,2420,42.8014,5.9826,13.2998,4.59965,2453.582,38.4905
2023-10-09T03:03:49,2420,42.8014,5.9826,13.3016,4.59964,2453.604,38.4885
2023-10-09T03:06:49,2420,42.8014,5.9826,13.2996,4.59951,2453.582,38.4892
2023-10-09T03:09:49,2420,42.8014,5.9826,13.3009,4.59971,2453.582,38.4899
2023-10-09T03:12:49,2420,42.8014,5.9826,13.3016,4.59951,2453.604,38.4872
2023-10-09T03:15:49,2420,42.8014,5.9826,13.3001,4.59967,2453.582,38.4902
2023-10-09T03:18:49,2420,42.8014,5.9826,13.2999,4.59960,2453.612,38.4898
2023-10-09T03:21:49,2420,42.8014,5.9826,13.3003,4.59949,2453.604,38.4884
2023-10-09T03:24:49,2420,42.8014,5.9826,13.2993,4.59968,2453.596,38.4912
2023-10-09T03:27:49,2420,42.8014,5.9826,13.3008,4.59973,2453.559,38.4901
2023-10-09T03:30:49,2420,42.8014,5.9826,13.3000,4.59965,2453.582,38.4902
2023-10-09T03:33:49,2420,42.8014,5.9826,13.2998,4.59966,2453.559,38.4905
2023-10-09T03:36:49,2420,42.8014,5.9826,13.2983,4.59962,2453.582,38.4916
2023-10-09T03:39:49,2420,42.8014,5.9826,13.3002,4.59959,2453.604,38.4894
2023-10-09T03:42:49,2420,42.8014,5.9826,13.3002,4.59979,2453.582,38.4914
2023-10-09T03:45:49,2420,42.8014,5.9826,13.2998,4.59974,2453.619,38.4911
2023-10-09T03:48:49,2420,42.8014,5.9826,13.3002,4.59954,2453.604,38.4889
2023-10-09T03:51:49,2420,42.8014,5.9826,13.3001,4.59959,2453.604,38.4895
2023-10-09T03:54:49,2420,42.8014,5.9826,13.3000,4.59959,2453.582,38.4896
2023-10-09T03:57:49,2420,42.8014,5.9826,13.3004,4.59962,2453.604,38.4896
2023-10-09T04:00:49,2420,42.8014,5.9826,13.3020,4.59978,2453.604,38.4895
2023-10-09T04:03:49,2420,42.8014,5.9826,13.3003,4.59972,2453.582,38.4905
2023-10-09T04:06:49,2420,42.8014,5.9826,13.3003,4.59970,2453.582,38.4903
2023-10-09T04:09:49,2420,42.8014,5.9826,13.3006,4.59960,2453.582,38.4891
2023-10-09T04:12:49,2420,42.8014,5.9826,13.2991,4.59949,2453.619,38.4895
2023-10-09T04:15:49,2420,42.8014,5.9826,13.3008,4.59971,2453.604,38.4900
2023-10-09T04:18:49,2420,42.8014,5.9826,13.3021,4.59968,2453.582,38.4884
2023-10-09T04:21:49,2420,42.8014,5.9826,13.2992,4.59949,2453.641,38.4895
2023-10-09T04:24:49,2420,42.8014,5.9826,13.3015,4.59967,2453.582,38.4889
2023-10-09T04:27:49,2420,42.8014,5.9826,13.3007,4.59962,2453.567,38.4892
2023-10-09T04:30:49,2420,42.8014,5.9826,13.3000,4.59951,2453.582,38.4889
2023-10-09T04:33:49,2420,42.8014,5.9826,13.3010,4.59974,2453.582,38.4900
2023-10-09T04:36:49,2420,42.8014,5.9826,13.3008,4.59977,2453.559,38.4906
2023-10-09T04:39:49,2420,42.8014,5.9826,13.2989,4.59962,2453.559,38.4910
2023-10-09T04:42:49,2420,42.8014,5.9826,13.2998,4.59971,2453.604,38.4909
2023-10-09T04:45:49,2420,42.8014,5.9826,13.3019,4.59964,2453.582,38.4882
2023-10-09T04:48:49,2420,42.8014,5.9826,13.3016,4.59979,2453.582,38.4900
2023-10-09T04:51:49,2420,42.8014,5.9826,13.2985,4.59958,2453.559,38.4910
2023-10-09T04:54:49,2420,42.8014,5.9826,13.3008,4.59981,2453.596,38.4910
2023-10-09T04:57:49,2420,42.8014,5.9826,13.3002,4.59980,2453.582,38.4914
2023-10-09T05:00:49,2420,42.8014,5.9826,13.3015,4.59990,2453.582,38.4911
2023-10-09T05:03:49,2420,42.8014,5.9826,13.2982,4.59982,2453.604,38.4937
2023-10-09T05:06:49,2420,42.8014,5.9826,13.3026,4.59993,2453.582,38.4903
2023-10-09T05:09:49,2420,42.8014,5.9826,13.3004,4.60070,2453.604,38.4996
2023-10-09T05:12:49,2420,42.8014,5.9826,13.3011,4.60016,2453.582,38.4938
2023-10-09T05:15:49,2420,42.8014,5.9826,13.3021,4.59985,2453.604,38.4900
2023-10-09T05:18:49,2420,42.8014,5.9826,13.3044,4.59974,2453.604,38.4866
2023-10-09T05:21:49,2420,42.8014,5.9826,13.3022,4.59999,2453.604,38.4912
2023-10-09T05:24:49,2420,42.8014,5.9826,13.3008,4.59994,2453.582,38.4922
2023-10-09T05:27:49,2420,42.8014,5.9826,13.3016,4.59982,2453.567,38.4902
2023-10-09T05:30:49,2420,42.8014,5.9826,13.3002,4.60017,2453.604,38.4949
2023-10-09T05:33:49,2420,42.8014,5.9826,13.3014,4.59980,2453.604,38.4902
2023-10-09T05:36:49,2420,42.8014,5.9826,13.3025,4.59990,2453.544,38.4901
2023-10-09T05:39:49,2420,42.8014,5.9826,13.3015,4.59971,2453.582,38.4893
2023-10-09T05:42:49,2420,42.8014,5.9826,13.3013,4.60013,2453.604,38.4934
2023-10-09T05:45:49,2420,42.8014,5.9826,13.2999,4.60004,2453.590,38.4940
2023-10-09T05:48:49,2420,42.8014,5.9826,13.3004,4.59996,2453.559,38.4927
2023-10-09T05:51:49,2420,42.8014,5.9826,13.2998,4.59990,2453.604,38.4927
2023-10-09T05:54:49,2420,42.8014,5.9826,13.2990,4.59999,2453.604,38.4944
2023-10-09T05:57:49,2420,42.8014,5.9826,13.2993,4.59989,2453.582,38.4932
2023-10-09T06:00:49,2420,42.8014,5.9826,13.3014,4.60012,2453.582,38.4933
2023-10-09T06:03:49,2420,42.8014,5.9826,13.3010,4.59974,2453.582,38.4901
2023-10-09T06:06:49,2420,42.8014,5.9826,13.3015,4.59999,2453.582,38.4919
2023-10-09T06:09:49,2420,42.8014,5.9826,13.3031,4.60051,2453.582,38.4952
2023-10-09T06:12:49,2420,42.8014,5.9826,13.3005,4.60000,2453.574,38.4930
2023-10-09T06:15:49,2420,42.8014,5.9826,13.3007,4.59992,2453.619,38.4920
2023-10-09T06:18:49,2420,42.8014,5.9826,13.3019,4.60016,2453.582,38.4931
2023-10-09T06:21:49,2420,42.8014,5.9826,13.3018,4.60007,2453.619,38.4924
2023-10-09T06:24:49,2420,42.8014,5.9826,13.3008,4.59981,2453.582,38.4910
2023-10-09T06:27:49,2420,42.8014,5.9826,13.3013,4.60054,2453.604,38.4973
2023-10-09T06:30:49,2420,42.8014,5.9826,13.3041,4.60011,2453.559,38.4905
2023-10-09T06:33:49,2420,42.8014,5.9826,13.3033,4.60015,2453.604,38.4916
2023-10-09T06:36:49,2420,42.8014,5.9826,13.3040,4.60001,2453.604,38.4896
2023-10-09T06:39:49,2420,42.8014,5.9826,13.3000,4.60037,2453.582,38.4970
2023-10-09T06:42:49,2420,42.8014,5.9826,13.2991,4.59999,2453.582,38.4942
2023-10-09T06:45:49,2420,42.8014,5.9826,13.3040,4.59982,2453.582,38.4878
2023-10-09T06:48:49,2420,42.8014,5.9826,13.3001,4.60031,2453.567,38.4962
2023-10-09T06:51:49,2420,42.8014,5.9826,13.3001,4.59996,2453.582,38.4930
2023-10-09T06:54:49,2420,42.8014,5.9826,13.3021,4.60004,2453.559,38.4918
2023-10-09T06:57:49,2420,42.8014,5.9826,13.3051,4.59994,2453.559,38.4878
2023-10-09T07:00:49,2420,42.8014,5.9826,13.3010,4.59982,2453.582,38.4908
2023-10-09T07:03:49,2420,42.8014,5.9826,13.3043,4.59986,2453.537,38.4879
2023-10-09T07:06:49,2420,42.8014,5.9826,13.3030,4.60000,2453.559,38.4905
2023-10-09T07:09:49,2420,42.8014,5.9826,13.2997,4.60022,2453.559,38.4959
2023-10-09T07:12:49,2420,42.8014,5.9826,13.3051,4.60008,2453.559,38.4892
2023-10-09T07:15:49,2420,42.8014,5.9826,13.3033,4.60029,2453.582,38.4930
2023-10-09T07:18:49,2420,42.8014,5.9826,13.3010,4.60049,2453.559,38.4972
2023-10-09T07:21:49,2420,42.8014,5.9826,13.3016,4.59999,2453.559,38.4918
2023-10-09T07:24:49,2420,42.8014,5.9826,13.3081,4.60039,2453.582,38.4891
2023-10-09T07:27:49,2420,42.8014,5.9826,13.3003,4.60019,2453.582,38.4950
2023-10-09T07:30:49,2420,42.8014,5.9826,13.3108,4.60061,2453.582,38.4885
2023-10-09T07:33:49,2420,42.8014,5.9826,13.3059,4.60065,2453.582,38.4937
2023-10-09T07:36:49,2420,42.8014,5.9826,13.3051,4.60003,2453.582,38.4887
2023-10-09T07:39:49,2420,42.8014,5.9826,13.3044,4.60016,2453.567,38.4906
2023-10-09T07:42:49,2420,42.8014,5.9826,13.2995,4.60019,2453.574,38.4958
2023-10-09T07:45:49,2420,42.8014,5.9826,13.2997,4.59997,2453.596,38.4935
2023-10-09T07:48:49,2420,42.8014,5.9826,13.3002,4.59986,2453.582,38.4920
2023-10-09T07:51:49,2420,42.8014,5.9826,13.3025,4.60016,2453.559,38.4926
2023-10-09T07:54:49,2420,42.8014,5.9826,13.3023,4.60021,2453.582,38.4932
2023-10-09T07:57:49,2420,42.8014,5.9826,13.3006,4.60005,2453.559,38.4934
2023-10-09T08:00:49,2420,42.8014,5.9826,13.3019,4.60044,2453.559,38.4958
2023-10-09T08:03:49,2420,42.8014,5.9826,13.3042,4.60014,2453.559,38.4906
2023-10-09T08:06:49,2420,42.8014,5.9826,13.2998,4.59998,2453.544,38.4935
2023-10-09T08:09:49,2420,42.8014,5.9826,13.3058,4.60033,2453.582,38.4909
2023-10-09T08:12:49,2420,42.8014,5.9826,13.3038,4.60075,2453.582,38.4968
2023-10-09T08:15:49,2420,42.8014,5.9826,13.2986,4.60067,2453.596,38.5012
2023-10-09T08:18:49,2420,42.8014,5.9826,13.3053,4.60014,2453.574,38.4896
2023-10-09T08:21:49,2420,42.8014,5.9826,13.3089,4.60048,2453.559,38.4891
2023-10-09T08:24:49,2420,42.8014,5.9826,13.3064,4.60019,2453.537,38.4890
2023-10-09T08:27:49,2420,42.8014,5.9826,13.2999,4.60042,2453.582,38.4976
2023-10-09T08:30:49,2420,42.8014,5.9826,13.3065,4.60011,2453.544,38.4881
2023-10-09T08:33:49,2420,42.8014,5.9826,13.3089,4.60006,2453.559,38.4852
2023-10-09T08:36:49,2420,42.8014,5.9826,13.3002,4.60004,2453.582,38.4937
2023-10-09T08:39:49,2420,42.8014,5.9826,13.2995,4.60009,2453.559,38.4949
2023-10-09T08:42:49,2420,42.8014,5.9826,13.3029,4.60027,2453.559,38.4932
2023-10-09T08:45:49,2420,42.8014,5.9826,13.2998,4.60006,2453.559,38.4942
2023-10-09T08:48:49,2420,42.8014,5.9826,13.3018,4.60004,2453.537,38.4921
2023-10-09T08:51:49,2420,42.8014,5.9826,13.3002,4.60007,2453.522,38.4940
2023-10-09T08:54:49,2420,42.8014,5.9826,13.3015,4.59997,2453.559,38.4917
2023-10-09T08:57:49,2420,42.8014,5.9826,13.2988,4.60016,2453.559,38.4962
2023-10-09T09:00:49,2420,42.8014,5.9826,13.2998,4.59992,2453.559,38.4929
2023-10-09T09:03:49,2420,42.8014,5.9826,13.2998,4.60057,2453.544,38.4991
2023-10-09T09:06:49,2420,42.8014,5.9826,13.3054,4.60065,2453.551,38.4943
2023-10-09T09:09:49,2420,42.8014,5.9826,13.3009,4.59997,2453.559,38.4924
2023-10-09T09:12:49,2420,42.8014,5.9826,13.3013,4.60021,2453.537,38.4942
2023-10-09T09:15:49,2420,42.8014,5.9826,13.3022,4.60020,2453.559,38.4932
2023-10-09T09:18:49,2420,42.8014,5.9826,13.3009,4.59996,2453.559,38.4922
2023-10-09T09:21:49,2420,42.8014,5.9826,13.2991,4.60047,2453.574,38.4988
2023-10-09T09:24:49,2420,42.8014,5.9826,13.3016,4.60002,2453.574,38.4922
2023-10-09T09:27:50,2420,42.8014,5.9826,13.3059,4.60020,2453.537,38.4896
2023-10-09T09:30:49,2420,42.8014,5.9826,13.2990,4.60028,2453.537,38.4972
2023-10-09T09:33:49,2420,42.8014,5.9826,13.3086,4.60014,2453.537,38.4864
2023-10-09T09:36:49,2420,42.8014,5.9826,13.3011,4.60044,2453.582,38.4966
2023-10-09T09:39:49,2420,42.8014,5.9826,13.3044,4.60180,2453.559,38.5061
2023-10-09T09:42:49,2420,42.8014,5.9826,13.3176,4.60039,2453.559,38.4797
2023-10-09T09:45:49,2420,42.8014,5.9826,13.3009,4.60007,2453.537,38.4933
2023-10-09T09:48:49,2420,42.8014,5.9826,13.3023,4.60076,2453.559,38.4984
2023-10-09T09:51:49,2420,42.8014,5.9826,13.3068,4.60095,2453.582,38.4957
2023-10-09T09:54:49,2420,42.8014,5.9826,13.2998,4.59994,2453.559,38.4931
2023-10-09T09:57:49,2420,42.8014,5.9826,13.3054,4.60065,2453.559,38.4943
2023-10-09T10:00:49,2420,42.8014,5.9826,13.3010,4.60010,2453.544,38.4935
2023-10-09T10:03:49,2420,42.8014,5.9826,13.3083,4.60118,2453.537,38.4964
2023-10-09T10:06:49,2420,42.8014,5.9826,13.3045,4.60048,2453.574,38.4936
2023-10-09T10:09:49,2420,42.8014,5.9826,13.3044,4.60052,2453.537,38.4940
2023-10-09T10:12:49,2420,42.8014,5.9826,13.3010,4.60033,2453.574,38.4956
2023-10-09T10:15:49,2420,42.8014,5.9826,13.3008,4.59992,2453.559,38.4920
2023-10-09T10:18:49,2420,42.8014,5.9826,13.3021,4.59997,2453.559,38.4912
2023-10-09T10:21:49,2420,42.8014,5.9826,13.3067,4.59983,2453.582,38.4853
2023-10-09T10:24:49,2420,42.8014,5.9826,13.3008,4.59978,2453.559,38.4906
2023-10-09T10:27:50,2420,42.8014,5.9826,13.2990,4.60005,2453.559,38.4949
2023-10-09T10:30:49,2420,42.8014,5.9826,13.3048,4.60048,2453.596,38.4933
2023-10-09T10:33:49,2420,42.8014,5.9826,13.3043,4.60029,2453.559,38.4920
2023-10-09T10:36:49,2420,42.8014,5.9826,13.3042,4.60042,2453.522,38.4933
2023-10-09T10:39:49,2420,42.8014,5.9826,13.2995,4.60016,2453.522,38.4956
2023-10-09T10:42:49,2420,42.8014,5.9826,13.3012,4.60016,2453.537,38.4938
2023-10-09T10:45:49,2420,42.8014,5.9826,13.3060,4.60028,2453.582,38.4902
2023-10-09T10:48:49,2420,42.8014,5.9826,13.3042,4.60003,2453.559,38.4896
2023-10-09T10:51:49,2420,42.8014,5.9826,13.3029,4.60005,2453.559,38.4912
2023-10-09T10:54:49,2420,42.8014,5.9826,13.3005,4.59999,2453.537,38.4929
2023-10-09T10:57:49,2420,42.8014,5.9826,13.3004,4.59998,2453.559,38.4929
2023-10-09T11:00:49,2420,42.8014,5.9826,13.3012,4.59977,2453.596,38.4901
2023-10-09T11:03:49,2420,42.8014,5.9826,13.2993,4.59962,2453.559,38.4906
2023-10-09T11:06:49,2420,42.8014,5.9826,13.3006,4.59969,2453.559,38.4900
2023-10-09T11:09:49,2420,42.8014,5.9826,13.2997,4.59971,2453.582,38.4911
2023-10-09T11:12:49,2420,42.8014,5.9826,13.3000,4.59974,2453.582,38.4909
2023-10-09T11:15:49,2420,42.8014,5.9826,13.3026,4.59979,2453.574,38.4890
2023-10-09T11:18:49,2420,42.8014,5.9826,13.3020,4.59980,2453.559,38.4897
2023-10-09T11:21:49,2420,42.8014,5.9826,13.2997,4.59989,2453.582,38.4928
2023-10-09T11:24:49,2420,42.8014,5.9826,13.3006,4.60007,2453.559,38.4936
2023-10-09T11:27:49,2420,42.8014,5.9826,13.3011,4.59991,2453.537,38.4916
2023-10-09T11:30:49,2420,42.8014,5.9826,13.3013,4.59979,2453.582,38.4902
2023-10-09T11:33:49,2420,42.8014,5.9826,13.2990,4.59987,2453.582,38.4932
2023-10-09T11:36:49,2420,42.8014,5.9826,13.2981,4.59995,2453.559,38.4949
2023-10-09T11:39:49,2420,42.8014,5.9826,13.3002,4.59984,2453.559,38.4918
2023-10-09T11:42:49,2420,42.8014,5.9826,13.3002,4.59982,2453.537,38.4916
2023-10-09T11:45:49,2420,42.8014,5.9826,13.3024,4.59985,2453.559,38.4897
2023-10-09T11:48:49,2420,42.8014,5.9826,13.3099,4.59975,2453.574,38.4813
2023-10-09T11:51:49,2420,42.8014,5.9826,13.3009,4.59980,2453.582,38.4908
2023-10-09T11:54:49,2420,42.8014,5.9826,13.3034,4.59977,2453.582,38.4880
2023-10-09T11:57:49,2420,42.8014,5.9826,13.3055,4.59979,2453.559,38.4860
2023-10-09T12:00:49,2420,42.8014,5.9826,13.3020,4.59990,2453.582,38.4906
2023-10-09T12:03:49,2420,42.8014,5.9826,13.3026,4.59985,2453.582,38.4895
2023-10-09T12:06:49,2420,42.8014,5.9826,13.3027,4.60024,2453.596,38.4931
2023-10-09T12:09:49,2420,42.8014,5.9826,13.3007,4.60039,2453.590,38.4965
2023-10-09T12:12:49,2420,42.8014,5.9826,13.3018,4.59988,2453.559,38.4906
2023-10-09T12:15:49,2420,42.8014,5.9826,13.3023,4.59986,2453.559,38.4899
2023-10-09T12:18:49,2420,42.8014,5.9826,13.2999,4.59974,2453.582,38.4911
2023-10-09T12:21:49,2420,42.8014,5.9826,13.3008,4.59971,2453.604,38.4900
2023-10-09T12:24:50,2420,42.8014,5.9826,13.2991,4.59953,2453.574,38.4899
2023-10-09T12:27:49,2420,42.8014,5.9826,13.3011,4.59996,2453.582,38.4920
2023-10-09T12:30:49,2420,42.8014,5.9826,13.3003,4.59957,2453.582,38.4891
2023-10-09T12:33:49,2420,42.8014,5.9826,13.2999,4.59965,2453.559,38.4904
2023-10-09T12:36:49,2420,42.8014,5.9826,13.3015,4.59968,2453.596,38.4890
2023-10-09T12:39:49,2420,42.8014,5.9826,13.3015,4.59977,2453.559,38.4899
2023-10-09T12:42:49,2420,42.8014,5.9826,13.2980,4.59968,2453.582,38.4925
2023-10-09T12:45:49,2420,42.8014,5.9826,13.2986,4.59970,2453.582,38.4920
2023-10-09T12:48:49,2420,42.8014,5.9826,13.3002,4.59957,2453.604,38.4892
2023-10-09T12:51:49,2420,42.8014,5.9826,13.2979,4.59963,2453.590,38.4921
2023-10-09T12:54:49,2420,42.8014,5.9826,13.2995,4.59957,2453.604,38.4900
2023-10-09T12:57:49,2420,42.8014,5.9826,13.2992,4.59969,2453.604,38.4913
2023-10-09T13:00:49,2420,42.8014,5.9826,13.3011,4.59969,2453.567,38.4895
2023-10-09T13:03:49,2420,42.8014,5.9826,13.3005,4.59957,2453.604,38.4889
2023-10-09T13:06:49,2420,42.8014,5.9826,13.2996,4.59974,2453.604,38.4914
2023-10-09T13:09:49,2420,42.8014,5.9826,13.2991,4.59959,2453.582,38.4905
2023-10-09T13:12:49,2420,42.8014,5.9826,13.3011,4.59987,2453.582,38.4911
2023-10-09T13:15:49,2420,42.8014,5.9826,13.2995,4.59973,2453.604,38.4914
2023-10-09T13:18:49,2420,42.8014,5.9826,13.3025,4.59967,2453.596,38.4879
2023-10-09T13:21:49,2420,42.8014,5.9826,13.2991,4.59965,2453.604,38.4911
2023-10-09T13:24:49,2420,42.8014,5.9826,13.2987,4.59965,2453.604,38.4914
2023-10-09T13:27:49,2420,42.8014,5.9826,13.3011,4.59959,2453.604,38.4885
2023-10-09T13:30:49,2420,42.8014,5.9826,13.2993,4.59960,2453.604,38.4905
2023-10-09T13:33:49,2420,42.8014,5.9826,13.2993,4.59957,2453.604,38.4902
2023-10-09T13:36:49,2420,42.8014,5.9826,13.2993,4.59953,2453.604,38.4897
2023-10-09T13:39:49,2420,42.8014,5.9826,13.2991,4.59956,2453.641,38.4902
2023-10-09T13:42:49,2420,42.8014,5.9826,13.3005,4.59977,2453.604,38.4907
2023-10-09T13:45:49,2420,42.8014,5.9826,13.2995,4.59963,2453.619,38.4905
2023-10-09T13:48:49,2420,42.8014,5.9826,13.3015,4.59968,2453.604,38.4890
2023-10-09T13:51:49,2420,42.8014,5.9826,13.3018,4.59964,2453.612,38.4883
2023-10-09T13:54:49,2420,42.8014,5.9826,13.2998,4.59971,2453.612,38.4910
2023-10-09T13:57:49,2420,42.8014,5.9826,13.3008,4.59962,2453.649,38.4891
2023-10-09T14:00:49,2420,42.8014,5.9826,13.3024,4.59972,2453.596,38.4885
2023-10-09T14:03:49,2420,42.8014,5.9826,13.3022,4.59979,2453.604,38.4893
2023-10-09T14:06:49,2420,42.8014,5.9826,13.2996,4.59957,2453.627,38.4898
2023-10-09T14:09:49,2420,42.8014,5.9826,13.3004,4.59955,2453.627,38.4888
2023-10-09T14:12:49,2420,42.8014,5.9826,13.2987,4.59962,2453.635,38.4911
2023-10-09T14:15:49,2420,42.8014,5.9826,13.2983,4.59966,2453.649,38.4920
2023-10-09T14:18:49,2420,42.8014,5.9826,13.2985,4.59952,2453.627,38.4905
2023-10-09T14:21:49,2420,42.8014,5.9826,13.2985,4.59968,2453.604,38.4920
2023-10-09T14:24:49,2420,42.8014,5.9826,13.3015,4.59957,2453.672,38.4879
2023-10-09T14:27:49,2420,42.8014,5.9826,13.2996,4.59967,2453.635,38.4908
2023-10-09T14:30:49,2420,42.8014,5.9826,13.3009,4.59965,2453.672,38.4893
2023-10-09T14:33:49,2420,42.8014,5.9826,13.2996,4.59968,2453.641,38.4908
2023-10-09T14:36:49,2420,42.8014,5.9826,13.2999,4.59959,2453.649,38.4897
2023-10-09T14:39:49,2420,42.8014,5.9826,13.2999,4.59956,2453.649,38.4894
2023-10-09T14:42:49,2420,42.8014,5.9826,13.2998,4.59960,2453.672,38.4899
2023-10-09T14:45:49,2420,42.8014,5.9826,13.3004,4.59958,2453.649,38.4891
2023-10-09T14:48:49,2420,42.8014,5.9826,13.2991,4.59959,2453.672,38.4905
2023-10-09T14:51:49,2420,42.8014,5.9826,13.2992,4.59964,2453.657,38.4908
2023-10-09T14:54:49,2420,42.8014,5.9826,13.2998,4.59957,2453.649,38.4896
2023-10-09T14:57:49,2420,42.8014,5.9826,13.3002,4.59949,2453.627,38.4885
2023-10-09T15:00:49,2420,42.8014,5.9826,13.3004,4.59948,2453.635,38.4881
2023-10-09T15:03:49,2420,42.8014,5.9826,13.3004,4.59955,2453.649,38.4888
2023-10-09T15:06:49,2420,42.8014,5.9826,13.3000,4.59947,2453.641,38.4884
2023-10-09T15:09:49,2420,42.8014,5.9826,13.2996,4.59962,2453.649,38.4904
2023-10-09T15:12:49,2420,42.8014,5.9826,13.3007,4.59957,2453.672,38.4887
2023-10-09T15:15:49,2420,42.8014,5.9826,13.2987,4.59977,2453.635,38.4925
2023-10-09T15:18:49,2420,42.8014,5.9826,13.2994,4.59951,2453.672,38.4894
2023-10-09T15:21:49,2420,42.8014,5.9826,13.2997,4.59948,2453.649,38.4888
2023-10-09T15:24:49,2420,42.8014,5.9826,13.2992,4.59953,2453.672,38.4898
2023-10-09T15:27:49,2420,42.8014,5.9826,13.2988,4.59943,2453.695,38.4892
2023-10-09T15:30:50,2420,42.8014,5.9826,13.3011,4.59950,2453.649,38.4876
2023-10-09T15:33:49,2420,42.8014,5.9826,13.2994,4.59959,2453.672,38.4902
2023-10-09T15:36:49,2420,42.8014,5.9826,13.2998,4.59943,2453.695,38.4882
2023-10-09T15:39:49,2420,42.8014,5.9826,13.2993,4.59957,2453.657,38.4901
2023-10-09T15:42:49,2420,42.8014,5.9826,13.3002,4.59957,2453.695,38.4891
2023-10-09T15:45:49,2420,42.8014,5.9826,13.2986,4.59944,2453.672,38.4896
2023-10-09T15:48:49,2420,42.8014,5.9826,13.2986,4.59943,2453.695,38.4894
2023-10-09T15:51:49,2420,42.8014,5.9826,13.2991,4.59942,2453.672,38.4889
2023-10-09T15:54:49,2420,42.8014,5.9826,13.2988,4.59945,2453.672,38.4895
2023-10-09T15:57:49,2420,42.8014,5.9826,13.2986,4.59943,2453.672,38.4894
2023-10-09T16:00:50,2420,42.8014,5.9826,13.2982,4.59938,2453.672,38.4894
2023-10-09T16:03:49,2420,42.8014,5.9826,13.2985,4.59938,2453.672,38.4891